Умёт

Россия / Тамбовская область     52°33′29″N   42°58′00″E
темп.,
°C
ветер,
м/с
пор.,
м/с
влажн.,
%
обл.,
%
осадки,
мм/ч
давл.,
гПа
погр.,
м
5 марта, пт
пт500:000зюз51193100 0.1 1002624
03:00−1зюз51196100 0.2 1001495
06:000з51197100 0.8 1002619
09:00−2зсз61092100 0.9 1004597
12:00−1сз358886 0.1 1008608
15:00−2сз368863 0.1 1010528
18:00−6зсз238838 0.0 101221
21:00−9зсз239021 0.0 101521
6 марта, сб
сб600:00−10зсз229163 0.0 101521
03:00−11зсз129374 0.0 101621
06:00−11сз0195100 0.0 101621
09:00−8св1193100 0.0 101628
12:00−6всв1187100 0.0 1016196
15:00−5всв1288100 0.0 1015217
18:00−9всв228998 0.0 101421
21:00−10ссв228898 0.0 101521
7 марта, вс
вс700:00−12ссз239089 0.0 101521
03:00−13зсз239570 0.0 101623
06:00−14зюз34960 0.0 101648
09:00−12юз510940 0.0 1016271
12:00−7юз7128651 0.0 1013712
15:00−4юз8148176 0.0 10091065
18:00−4юз91881100 0.1 10041142
21:00−3юз111894100 1.5 10021047
8 марта, пн
пн800:00−7з61477100 0.9 1002499
03:00−10юз5128350 0.9 1004236
06:00−11ююз511850 0.0 1002189
09:00−6юз7158833 0.0 1000593
12:00−4з101478100 0.3 10011375
15:00−6з7128257 0.3 1003771
18:00−9з4119183 0.0 1005282
21:00−9з5109592 0.1 1007454
9 марта, вт
вт900:00−10з51193100 0.1 1008399
03:00−13зюз5109689 0.1 1009220
06:00−14з489798 0.0 1011146
09:00−12з489589 0.1 1013317
12:00−9зсз478790 0.0 1014615
15:00−9зсз578591 0.1 1015881
18:00−10с2393100 0.1 101336
21:00−12ссз5992100 0.1 1015336